Theta_e
345 347 347 346 346 346 346 346 345 345 345 344 340 335 330 330 332 334 340 344 343 344 343 340 339 341 343 337 339 339 333 327 325 321 321 330 335 334 339 338 335 334 338
345 347 347 346 345 345 345 345 345 345 344 344 343 337 331 333 336 339 340 340 337 337 337 332 332 338 335 329 328 326 322 320 320 321 329 339 325 325 330 332 333 333 332
344 345 345 345 344 344 344 344 345 345 344 344 343 336 331 330 337 340 340 341 340 339 339 337 332 330 328 323 322 322 329 337 339 341 338 339 335 325 325 337 339 338 339
341 345 345 344 343 340 342 343 344 345 344 344 340 334 330 328 338 340 340 339 337 337 340 338 330 325 323 329 327 330 330 327 330 340 341 333 326 332 326 328 326 335 332
342 345 346 345 345 342 340 341 345 344 344 344 332 329 328 334 336 337 331 330 329 331 337 339 331 323 334 333 337 339 341 339 336 330 331 327 323 328 333 338 333 334 336
343 345 345 347 347 345 344 344 344 343 344 334 330 330 333 334 335 332 330 329 330 330 336 337 331 338 340 341 342 343 341 339 334 328 325 327 327 327 325 324 333 335 337
335 336 340 345 345 345 344 343 343 340 341 331 330 331 331 333 334 331 330 329 333 333 335 334 331 336 338 340 342 343 342 340 341 339 335 333 333 327 333 325 334 331 334
336 337 339 345 344 342 342 341 336 332 333 331 331 330 330 332 332 330 329 334 336 336 335 336 330 334 337 340 344 344 343 343 344 342 339 331 335 331 326 324 322 321 327
337 338 337 342 342 342 341 339 334 332 331 330 329 328 330 331 330 328 334 337 336 335 336 334 335 332 338 342 345 343 342 342 342 343 340 333 329 328 327 328 325 324 322
340 341 338 339 340 341 341 339 336 335 331 329 329 328 329 328 327 330 339 339 334 333 335 335 332 332 334 342 344 345 343 342 341 344 341 336 328 326 325 328 332 333 329
341 341 341 340 337 339 340 340 338 336 334 330 328 327 327 327 327 335 333 335 335 333 332 333 333 330 333 343 344 345 342 342 342 343 344 341 332 326 325 325 328 332 334
340 341 341 340 339 337 338 340 344 339 337 333 331 330 329 329 331 333 334 335 334 334 331 333 327 327 330 341 343 343 343 344 344 347 345 344 332 326 325 324 324 326 328
336 338 338 339 338 338 337 336 343 341 336 336 335 335 334 334 334 334 334 334 334 334 332 331 325 325 324 337 342 342 343 343 344 345 344 344 331 330 328 325 324 324 325
337 335 336 337 337 337 337 337 335 335 334 335 334 334 334 333 333 335 335 336 334 335 336 331 327 325 326 329 339 339 343 342 343 345 343 341 341 338 338 331 325 323 324
344 340 335 334 334 334 333 334 336 335 334 333 333 333 333 333 334 337 336 340 339 335 335 336 330 325 333 333 333 338 342 341 344 345 343 342 344 344 341 339 336 330 324
350 346 340 333 331 331 330 330 332 332 332 332 332 332 333 334 338 344 343 343 342 339 332 335 333 328 334 334 335 339 342 342 344 344 345 343 345 344 343 341 338 339 334
351 349 348 342 332 331 330 327 329 331 332 331 332 332 334 335 339 345 340 339 341 340 337 335 335 331 331 337 341 344 343 343 344 345 345 345 343 343 345 342 340 340 339
351 349 349 348 339 336 334 329 328 332 336 337 337 339 339 340 341 342 345 342 340 339 339 339 334 335 329 327 337 341 342 343 344 343 345 344 343 344 346 345 345 342 341
350 349 350 349 349 349 345 337 335 339 344 345 341 343 341 341 342 343 342 341 342 342 339 342 342 336 335 337 331 341 341 343 344 343 343 344 343 344 344 345 344 345 345
350 350 350 350 349 349 349 348 345 345 346 346 346 348 349 349 348 347 346 343 342 343 342 339 344 342 339 334 340 340 339 341 341 340 341 343 343 342 343 344 343 344 344
349 349 350 351 350 350 350 349 349 349 348 347 347 347 347 349 350 348 348 347 344 342 343 340 341 344 343 339 336 340 344 340 339 339 338 340 342 342 343 342 344 344 342
346 342 348 349 350 350 351 350 349 349 350 349 346 347 346 348 349 347 347 346 346 345 344 343 341 342 344 342 341 338 340 338 340 336 337 336 335 338 340 343 344 344 345
351 349 350 349 350 351 352 350 350 349 350 350 350 348 346 344 348 347 345 346 346 347 346 345 342 341 342 343 341 340 342 341 340 340 340 339 340 340 338 339 341 343 344
351 352 353 352 351 351 347 349 345 347 349 350 349 349 350 345 346 348 347 346 345 345 348 347 344 342 343 343 345 342 344 343 342 341 339 337 338 341 342 342 342 341 342
347 348 346 347 345 349 354 350 349 348 349 349 348 347 348 349 347 346 347 347 347 346 346 347 346 343 344 345 343 345 343 344 345 344 343 341 342 342 342 343 341 342 342
333 332 331 331 336 339 339 342 342 339 343 346 345 348 350 349 348 348 348 345 345 346 345 347 347 345 343 342 345 345 343 343 343 344 343 341 339 336 340 342 342 341 342
Wind_Speed
21 19 21 21 21 22 23 23 25 28 29 30 31 30 29 29 28 25 23 19 18 18 17 16 15 14 15 13 14 12 12 11 11 12 14 15 13 13 13 13 14 14 13
25 23 22 21 21 22 22 22 23 25 27 28 28 29 29 28 24 23 19 18 18 19 18 16 14 15 14 14 15 14 14 15 14 14 17 14 12 13 12 12 13 12 11
25 20 20 21 22 23 22 21 21 25 27 27 27 31 30 24 21 20 19 20 20 18 16 15 14 15 15 16 17 19 17 16 14 14 15 15 14 14 12 13 13 13 11
24 24 21 21 21 22 22 21 22 25 27 27 28 30 27 22 20 20 20 19 18 17 15 14 15 16 17 19 20 21 19 15 13 13 13 12 12 12 11 12 12 12 11
26 25 23 22 22 22 22 20 23 26 27 27 30 30 27 23 20 18 18 16 15 15 15 15 14 17 18 21 22 20 17 14 13 11 9 8 9 11 11 11 11 11 11
27 25 24 23 22 21 21 22 26 26 28 32 31 30 27 22 19 16 16 14 13 13 14 15 15 19 20 19 17 14 13 13 13 11 9 8 8 9 9 9 9 9 9
27 24 23 23 23 23 23 25 26 26 30 33 31 28 24 21 18 15 13 10 11 12 14 16 16 17 19 16 13 13 10 12 12 11 9 6 5 5 7 8 8 8 8
25 24 24 23 24 23 23 25 26 25 28 30 27 24 21 18 15 12 9 9 11 13 14 14 15 16 16 14 12 10 9 12 10 9 6 5 4 3 3 5 6 6 7
24 24 24 24 24 24 24 25 26 25 26 28 26 23 20 17 13 10 8 9 8 9 11 14 14 15 15 14 11 10 8 8 8 7 4 3 3 3 2 4 5 6 6
26 24 23 23 23 24 23 23 24 23 24 26 25 23 19 17 14 11 9 8 7 6 6 10 14 16 17 15 12 10 6 9 7 5 2 1 3 4 3 3 5 5 5
26 24 23 23 23 23 23 23 22 23 23 24 24 22 21 18 14 12 10 9 7 6 5 8 13 15 20 17 14 10 6 7 6 1 3 4 5 4 5 5 5 6 6
29 26 24 23 22 23 23 24 22 22 23 23 23 22 21 18 14 12 10 10 9 8 5 7 10 16 22 21 17 13 9 6 3 5 6 7 5 4 5 6 6 7 7
27 26 25 23 22 22 23 24 24 22 21 21 21 20 18 17 15 14 13 12 11 10 9 8 10 17 21 23 20 15 13 7 6 9 10 8 5 5 4 5 6 8 8
26 23 24 24 23 22 21 22 22 22 21 21 20 19 18 18 18 16 15 13 11 10 10 10 11 18 18 21 21 17 15 11 9 8 10 7 4 4 3 4 6 8 9
25 23 23 24 24 23 22 22 21 21 21 20 19 19 19 19 18 16 15 15 11 10 11 12 13 20 20 20 21 19 18 13 9 10 9 7 5 4 5 5 5 6 8
26 23 21 25 24 23 22 22 21 20 19 19 19 19 20 19 19 17 15 16 13 12 11 13 15 19 20 21 21 20 16 10 7 7 10 11 8 7 7 7 7 7 8
26 21 18 19 24 23 21 22 21 20 19 19 19 19 21 21 20 17 16 17 14 13 14 14 17 20 23 23 23 19 16 12 11 9 13 13 7 9 6 7 9 9 9
27 24 19 17 20 22 22 22 22 22 20 19 20 21 22 22 20 20 20 18 15 17 17 14 17 21 22 25 26 23 20 17 15 16 14 15 12 13 11 9 8 11 10
27 24 23 20 16 16 15 19 21 23 21 20 21 19 20 21 21 22 23 22 20 20 20 19 20 21 21 22 26 25 26 22 20 20 20 17 16 17 15 12 12 12 11
27 26 25 25 18 15 16 19 20 21 25 23 23 23 23 23 24 24 25 24 24 22 22 23 25 21 20 21 22 22 25 26 25 25 25 24 21 20 21 19 17 18 17
20 25 28 28 24 23 23 19 23 24 24 28 28 27 27 25 27 28 28 26 25 25 25 25 26 24 23 20 22 25 25 25 27 28 30 28 28 26 24 24 22 21 20
15 19 19 24 29 28 27 23 25 22 26 24 27 32 30 28 28 28 31 29 26 27 28 28 29 29 27 23 25 25 28 28 27 27 26 31 32 32 31 28 26 26 25
16 18 22 20 25 27 29 25 33 33 31 29 29 30 35 35 31 30 31 29 29 30 31 29 29 31 31 27 24 24 12 16 22 25 28 27 27 27 30 34 33 29 27
15 17 16 20 24 25 23 26 33 31 29 34 30 30 32 39 39 36 34 34 32 31 34 34 30 31 32 31 30 30 32 17 8 7 13 19 28 27 27 27 28 28 28
4 6 7 9 12 15 23 22 22 27 27 30 31 29 31 33 39 43 41 40 39 37 35 37 36 34 35 36 35 33 34 33 34 33 30 25 18 19 18 23 27 28 28
6 4 3 2 1 3 7 12 17 18 21 24 28 31 31 33 34 39 43 43 43 42 41 38 38 37 37 38 39 38 34 36 37 36 37 38 36 31 26 21 23 25 25
Wind_Direction
157 151 146 146 148 146 141 137 137 139 137 135 138 137 133 131 128 126 124 125 123 123 124 125 126 125 125 123 127 124 120 120 127 128 125 125 120 125 121 124 126 125 126
150 149 143 143 148 149 147 144 144 145 143 140 142 143 137 135 129 128 127 126 122 120 117 120 120 125 125 123 122 120 118 115 114 117 117 117 120 125 133 127 121 124 127
148 144 145 146 146 146 148 145 146 148 148 144 145 148 143 134 126 123 121 123 121 122 121 119 123 123 124 122 120 118 112 111 114 115 121 119 113 116 128 131 125 122 125
152 148 147 147 143 146 148 149 147 150 152 149 148 151 150 143 132 124 118 121 117 117 121 123 124 127 127 124 121 117 116 112 106 112 123 120 115 124 123 127 136 138 134
151 147 148 147 147 148 152 148 151 151 151 151 150 150 151 146 139 135 127 123 118 118 124 129 132 131 129 128 124 121 115 110 105 109 122 119 121 127 126 134 132 129 133
150 150 147 148 149 149 151 149 151 151 152 152 150 151 152 149 143 137 131 125 120 120 125 135 136 135 132 132 130 127 120 105 98 103 112 110 119 123 132 141 144 142 141
151 152 151 152 151 149 150 151 152 151 155 157 154 154 157 155 151 146 138 129 125 126 130 140 146 144 140 140 133 130 122 125 108 99 99 102 104 124 131 140 147 146 152
154 153 152 155 154 152 152 154 155 154 160 167 165 164 163 160 157 156 151 141 137 133 135 144 153 157 151 147 142 134 135 119 121 110 105 113 113 113 139 152 160 165 169
162 157 155 156 158 157 156 159 162 161 166 171 176 175 170 169 172 170 161 151 145 137 141 152 161 166 164 160 156 146 144 150 127 123 111 121 149 159 166 170 161 163 173
169 166 162 159 162 162 161 163 165 166 167 173 177 181 181 180 181 176 162 169 160 147 148 158 165 179 180 173 173 166 155 156 148 126 125 209 205 185 193 199 189 183 175
177 176 171 170 168 168 167 168 172 174 173 175 182 187 190 192 192 187 184 186 181 182 169 166 165 176 180 184 181 178 168 157 167 148 266 266 259 219 209 215 221 219 208
183 183 182 179 176 174 174 174 178 181 183 183 184 188 191 193 197 200 208 206 206 205 194 182 175 181 184 186 190 184 182 188 232 263 272 245 256 232 216 225 228 232 229
183 187 190 188 187 184 183 185 187 190 189 191 193 193 193 197 204 211 214 221 222 214 206 193 187 183 184 187 193 193 195 220 243 263 235 221 238 227 217 230 235 237 237
188 193 198 197 197 197 197 197 196 199 199 199 199 200 203 208 213 218 220 217 221 220 208 192 191 186 182 189 196 200 202 214 244 233 206 203 225 227 215 233 239 246 243
196 201 206 206 206 207 208 209 208 208 210 208 207 208 210 214 220 221 223 217 212 221 213 201 195 193 194 195 199 199 206 209 224 199 199 204 243 287 257 240 247 256 253
205 205 209 213 215 216 216 219 219 219 220 220 218 219 221 222 223 227 228 227 220 225 222 213 206 203 202 201 202 207 215 212 214 212 206 218 240 263 267 251 251 259 259
207 206 204 218 218 223 225 227 224 224 227 228 227 226 229 229 229 232 237 247 231 227 228 221 217 212 210 209 211 217 225 225 232 239 235 231 258 262 258 250 253 259 262
212 211 207 206 213 221 226 228 228 224 229 236 234 232 233 237 239 237 241 246 243 237 228 226 222 221 218 221 223 222 232 232 237 242 240 234 254 260 258 265 263 258 261
215 221 215 217 218 222 221 225 232 233 233 236 230 233 233 240 247 249 246 248 243 246 242 233 232 232 233 229 233 231 236 242 244 248 242 236 237 254 259 257 263 267 265
222 226 227 222 229 231 236 228 230 240 238 238 236 235 237 245 249 251 252 249 246 248 246 243 239 240 242 239 239 244 242 243 250 252 248 246 247 248 255 259 263 264 264
235 233 234 232 237 228 227 236 235 238 244 242 242 244 245 250 253 254 253 252 249 244 248 250 247 248 246 245 249 246 243 249 248 251 247 246 248 248 254 259 263 266 265
257 237 245 248 246 245 246 243 238 248 252 252 252 250 251 248 247 252 255 257 258 253 244 247 247 248 248 244 246 246 258 258 246 244 242 244 248 250 251 255 258 261 265
230 232 240 243 250 254 257 260 250 245 252 253 251 251 252 247 249 249 251 253 258 258 254 254 248 246 245 240 239 234 237 247 261 253 242 240 240 246 250 252 254 255 262
213 233 249 255 262 265 265 257 236 256 264 262 267 264 261 252 253 253 253 253 255 258 256 253 254 245 244 245 243 240 238 244 266 276 265 255 247 251 256 253 252 252 257
210 228 246 247 254 260 256 258 260 265 267 270 274 272 268 267 259 254 256 257 256 255 256 254 253 248 246 247 246 247 243 245 250 254 265 265 258 245 258 267 255 249 254
156 148 110 90 273 290 293 282 283 296 291 281 278 276 278 273 267 262 258 259 258 258 257 256 255 254 252 251 249 248 248 247 249 251 257 265 267 261 267 276 252 248 253